Year,Month,Day,Hour,Minute,Value (Times are PST for temperature in C)
2018,07,18,00,00,20.20
2018,07,18,00,01,20.30
2018,07,18,00,02,20.30
2018,07,18,00,03,20.30
2018,07,18,00,04,20.30
2018,07,18,00,05,20.30
2018,07,18,00,06,20.40
2018,07,18,00,07,20.40
2018,07,18,00,08,20.40
2018,07,18,00,09,20.40
2018,07,18,00,10,20.40
2018,07,18,00,11,20.50
2018,07,18,00,12,20.50
2018,07,18,00,13,20.50
2018,07,18,00,14,20.60
2018,07,18,00,15,20.60
2018,07,18,00,16,20.60
2018,07,18,00,17,20.60
2018,07,18,00,18,20.70
2018,07,18,00,19,20.70
2018,07,18,00,20,20.70
2018,07,18,00,21,20.60
2018,07,18,00,22,20.60
2018,07,18,00,23,20.60
2018,07,18,00,24,20.60
2018,07,18,00,25,20.60
2018,07,18,00,26,20.60
2018,07,18,00,27,20.60
2018,07,18,00,28,20.50
2018,07,18,00,29,20.50
2018,07,18,00,30,20.50
2018,07,18,00,31,20.50
2018,07,18,00,32,20.40
2018,07,18,00,33,20.40
2018,07,18,00,34,20.40
2018,07,18,00,35,20.40
2018,07,18,00,36,20.40
2018,07,18,00,37,20.40
2018,07,18,00,38,20.40
2018,07,18,00,39,20.30
2018,07,18,00,40,20.30
2018,07,18,00,41,20.30
2018,07,18,00,42,20.30
2018,07,18,00,43,20.30
2018,07,18,00,44,20.30
2018,07,18,00,45,20.20
2018,07,18,00,46,20.20
2018,07,18,00,47,20.20
2018,07,18,00,48,20.20
2018,07,18,00,49,20.10
2018,07,18,00,50,20.10
2018,07,18,00,51,20.10
2018,07,18,00,52,20.10
2018,07,18,00,53,20.10
2018,07,18,00,54,20.10
2018,07,18,00,55,20.00
2018,07,18,00,56,20.00
2018,07,18,00,57,20.00
2018,07,18,00,58,19.90
2018,07,18,00,59,19.90
2018,07,18,01,00,19.90
2018,07,18,01,01,19.90
2018,07,18,01,02,19.90
2018,07,18,01,03,19.80
2018,07,18,01,04,19.80
2018,07,18,01,05,19.80
2018,07,18,01,06,19.80
2018,07,18,01,07,19.80
2018,07,18,01,08,19.70
2018,07,18,01,09,19.70
2018,07,18,01,10,19.70
2018,07,18,01,11,19.60
2018,07,18,01,12,19.60
2018,07,18,01,13,19.60
2018,07,18,01,14,19.50
2018,07,18,01,15,19.50
2018,07,18,01,16,19.50
2018,07,18,01,17,19.40
2018,07,18,01,18,19.40
2018,07,18,01,19,19.30
2018,07,18,01,20,19.30
2018,07,18,01,21,19.30
2018,07,18,01,22,19.30
2018,07,18,01,23,19.20
2018,07,18,01,24,19.20
2018,07,18,01,25,19.20
2018,07,18,01,26,19.20
2018,07,18,01,27,19.10
2018,07,18,01,28,19.10
2018,07,18,01,29,19.10
2018,07,18,01,30,19.10
2018,07,18,01,31,19.00
2018,07,18,01,32,19.00
2018,07,18,01,33,19.00
2018,07,18,01,34,19.00
2018,07,18,01,35,18.90
2018,07,18,01,36,18.90
2018,07,18,01,37,18.90
2018,07,18,01,38,18.90
2018,07,18,01,39,18.90
2018,07,18,01,40,18.90
2018,07,18,01,41,18.80
2018,07,18,01,42,18.80
2018,07,18,01,43,18.80
2018,07,18,01,44,18.80
2018,07,18,01,45,18.80
2018,07,18,01,46,18.80
2018,07,18,01,47,18.80
2018,07,18,01,48,18.80
2018,07,18,01,49,18.80
2018,07,18,01,50,18.80
2018,07,18,01,51,18.80
2018,07,18,01,52,18.80
2018,07,18,01,53,18.80
2018,07,18,01,54,18.80
2018,07,18,01,55,18.80
2018,07,18,01,56,18.80
2018,07,18,01,57,18.80
2018,07,18,01,58,18.80
2018,07,18,01,59,18.70
2018,07,18,02,00,18.70
2018,07,18,02,01,18.70
2018,07,18,02,02,18.70
2018,07,18,02,03,18.70
2018,07,18,02,04,18.70
2018,07,18,02,05,18.60
2018,07,18,02,06,18.60
2018,07,18,02,07,18.60
2018,07,18,02,08,18.60
2018,07,18,02,09,18.60
2018,07,18,02,10,18.60
2018,07,18,02,11,18.60
2018,07,18,02,12,18.60
2018,07,18,02,13,18.60
2018,07,18,02,14,18.60
2018,07,18,02,15,18.60
2018,07,18,02,16,18.60
2018,07,18,02,17,18.60
2018,07,18,02,18,18.60
2018,07,18,02,19,18.60
2018,07,18,02,20,18.60
2018,07,18,02,21,18.60
2018,07,18,02,22,18.60
2018,07,18,02,23,18.60
2018,07,18,02,24,18.60
2018,07,18,02,25,18.50
2018,07,18,02,26,18.50
2018,07,18,02,27,18.50
2018,07,18,02,28,18.50
2018,07,18,02,29,18.40
2018,07,18,02,30,18.40
2018,07,18,02,31,18.40
2018,07,18,02,32,18.40
2018,07,18,02,33,18.40
2018,07,18,02,34,18.40
2018,07,18,02,35,18.40
2018,07,18,02,36,18.40
2018,07,18,02,37,18.40
2018,07,18,02,38,18.30
2018,07,18,02,39,18.30
2018,07,18,02,40,18.30
2018,07,18,02,41,18.30
2018,07,18,02,42,18.30
2018,07,18,02,43,18.30
2018,07,18,02,44,18.30
2018,07,18,02,45,18.30
2018,07,18,02,46,18.30
2018,07,18,02,47,18.30
2018,07,18,02,48,18.30
2018,07,18,02,49,18.30
2018,07,18,02,50,18.30
2018,07,18,02,51,18.30
2018,07,18,02,52,18.30
2018,07,18,02,53,18.30
2018,07,18,02,54,18.30
2018,07,18,02,55,18.30
2018,07,18,02,56,18.30
2018,07,18,02,57,18.30
2018,07,18,02,58,18.30
2018,07,18,02,59,18.30
2018,07,18,03,00,18.30
2018,07,18,03,01,18.30
2018,07,18,03,02,18.30
2018,07,18,03,03,18.30
2018,07,18,03,04,18.20
2018,07,18,03,05,18.20
2018,07,18,03,06,18.20
2018,07,18,03,07,18.20
2018,07,18,03,08,18.20
2018,07,18,03,09,18.20
2018,07,18,03,10,18.20
2018,07,18,03,11,18.20
2018,07,18,03,12,18.20
2018,07,18,03,13,18.20
2018,07,18,03,14,18.20
2018,07,18,03,15,18.10
2018,07,18,03,16,18.10
2018,07,18,03,17,18.10
2018,07,18,03,18,18.10
2018,07,18,03,19,18.00
2018,07,18,03,20,18.00
2018,07,18,03,21,18.00
2018,07,18,03,22,17.90
2018,07,18,03,23,17.90
2018,07,18,03,24,17.90
2018,07,18,03,25,17.90
2018,07,18,03,26,17.90
2018,07,18,03,27,17.80
2018,07,18,03,28,17.80
2018,07,18,03,29,17.80
2018,07,18,03,30,17.80
2018,07,18,03,31,17.80
2018,07,18,03,32,17.70
2018,07,18,03,33,17.70
2018,07,18,03,34,17.70
2018,07,18,03,35,17.70
2018,07,18,03,36,17.70
2018,07,18,03,37,17.70
2018,07,18,03,38,17.60
2018,07,18,03,39,17.60
2018,07,18,03,40,17.60
2018,07,18,03,41,17.60
2018,07,18,03,42,17.60
2018,07,18,03,43,17.60
2018,07,18,03,44,17.70
2018,07,18,03,45,17.70
2018,07,18,03,46,17.70
2018,07,18,03,47,17.70
2018,07,18,03,48,17.70
2018,07,18,03,49,17.70
2018,07,18,03,50,17.70
2018,07,18,03,51,17.70
2018,07,18,03,52,17.70
2018,07,18,03,53,17.70
2018,07,18,03,54,17.70
2018,07,18,03,55,17.60
2018,07,18,03,56,17.60
2018,07,18,03,57,17.60
2018,07,18,03,58,17.60
2018,07,18,03,59,17.60
2018,07,18,04,00,17.60
2018,07,18,04,01,17.60
2018,07,18,04,02,17.50
2018,07,18,04,03,17.50
2018,07,18,04,04,17.40
2018,07,18,04,05,17.40
2018,07,18,04,06,17.40
2018,07,18,04,07,17.40
2018,07,18,04,08,17.30
2018,07,18,04,09,17.30
2018,07,18,04,10,17.30
2018,07,18,04,11,17.30
2018,07,18,04,12,17.30
2018,07,18,04,13,17.30
2018,07,18,04,14,17.20
2018,07,18,04,15,17.20
2018,07,18,04,16,17.20
2018,07,18,04,17,17.20
2018,07,18,04,18,17.20
2018,07,18,04,19,17.20
2018,07,18,04,20,17.10
2018,07,18,04,21,17.10
2018,07,18,04,22,17.10
2018,07,18,04,23,17.10
2018,07,18,04,24,17.00
2018,07,18,04,25,17.00
2018,07,18,04,26,17.00
2018,07,18,04,27,16.90
2018,07,18,04,28,16.90
2018,07,18,04,29,16.90
2018,07,18,04,30,16.90
2018,07,18,04,31,16.90
2018,07,18,04,32,17.00
2018,07,18,04,33,17.00
2018,07,18,04,34,17.00
2018,07,18,04,35,17.10
2018,07,18,04,36,17.10
2018,07,18,04,37,17.10
2018,07,18,04,38,17.10
2018,07,18,04,39,17.10
2018,07,18,04,40,17.10
2018,07,18,04,41,17.10
2018,07,18,04,42,17.10
2018,07,18,04,43,17.10
2018,07,18,04,44,17.10
2018,07,18,04,45,17.10
2018,07,18,04,46,17.10
2018,07,18,04,47,17.10
2018,07,18,04,48,17.10
2018,07,18,04,49,17.10
2018,07,18,04,50,17.10
2018,07,18,04,51,17.00
2018,07,18,04,52,17.00
2018,07,18,04,53,17.00
2018,07,18,04,54,16.90
2018,07,18,04,55,16.90
2018,07,18,04,56,16.90
2018,07,18,04,57,16.90
2018,07,18,04,58,16.90
2018,07,18,04,59,16.90
2018,07,18,05,00,16.90
2018,07,18,05,01,16.80
2018,07,18,05,02,16.80
2018,07,18,05,03,16.80
2018,07,18,05,04,16.80
2018,07,18,05,05,16.80
2018,07,18,05,06,16.80
2018,07,18,05,07,16.80
2018,07,18,05,08,16.70
2018,07,18,05,09,16.70
2018,07,18,05,10,16.70
2018,07,18,05,11,16.70
2018,07,18,05,12,16.70
2018,07,18,05,13,16.70
2018,07,18,05,14,16.70
2018,07,18,05,15,16.70
2018,07,18,05,16,16.70
2018,07,18,05,17,16.70
2018,07,18,05,18,16.70
2018,07,18,05,19,16.70
2018,07,18,05,20,16.70
2018,07,18,05,21,16.60
2018,07,18,05,22,16.60
2018,07,18,05,23,16.60
2018,07,18,05,24,16.60
2018,07,18,05,25,16.60
2018,07,18,05,26,16.60
2018,07,18,05,27,16.60
2018,07,18,05,28,16.60
2018,07,18,05,29,16.60
2018,07,18,05,30,16.50
2018,07,18,05,31,16.50
2018,07,18,05,32,16.50
2018,07,18,05,33,16.50
2018,07,18,05,34,16.50
2018,07,18,05,35,16.50
2018,07,18,05,36,16.50
2018,07,18,05,37,16.50
2018,07,18,05,38,16.40
2018,07,18,05,39,16.50
2018,07,18,05,40,16.40
2018,07,18,05,41,16.40
2018,07,18,05,42,16.40
2018,07,18,05,43,16.40
2018,07,18,05,44,16.40
2018,07,18,05,45,16.40
2018,07,18,05,46,16.40
2018,07,18,05,47,16.40
2018,07,18,05,48,16.40
2018,07,18,05,49,16.40
2018,07,18,05,50,16.40
2018,07,18,05,51,16.40
2018,07,18,05,52,16.40
2018,07,18,05,53,16.40
2018,07,18,05,54,16.40
2018,07,18,05,55,16.40
2018,07,18,05,56,16.40
2018,07,18,05,57,16.40
2018,07,18,05,58,16.40
2018,07,18,05,59,16.40
2018,07,18,06,00,16.40
2018,07,18,06,01,16.40
2018,07,18,06,02,16.40
2018,07,18,06,03,16.30
2018,07,18,06,04,16.40
2018,07,18,06,05,16.40
2018,07,18,06,06,16.40
2018,07,18,06,07,16.40
2018,07,18,06,08,16.40
2018,07,18,06,09,16.40
2018,07,18,06,10,16.40
2018,07,18,06,11,16.40
2018,07,18,06,12,16.40
2018,07,18,06,13,16.50
2018,07,18,06,14,16.50
2018,07,18,06,15,16.50
2018,07,18,06,16,16.50
2018,07,18,06,17,16.50
2018,07,18,06,18,16.50
2018,07,18,06,19,16.50
2018,07,18,06,20,16.50
2018,07,18,06,21,16.60
2018,07,18,06,22,16.60
2018,07,18,06,23,16.60
2018,07,18,06,24,16.70
2018,07,18,06,25,16.70
2018,07,18,06,26,16.70
2018,07,18,06,27,16.70
2018,07,18,06,28,16.70
2018,07,18,06,29,16.70
2018,07,18,06,30,16.70
2018,07,18,06,31,16.70
2018,07,18,06,32,16.70
2018,07,18,06,33,16.70
2018,07,18,06,34,16.80
2018,07,18,06,35,16.80
2018,07,18,06,36,16.90
2018,07,18,06,37,17.00
2018,07,18,06,38,17.00
2018,07,18,06,39,17.10
2018,07,18,06,40,17.10
2018,07,18,06,41,17.20
2018,07,18,06,42,17.30
2018,07,18,06,43,17.40
2018,07,18,06,44,17.40
2018,07,18,06,45,17.50
2018,07,18,06,46,17.50
2018,07,18,06,47,17.50
2018,07,18,06,48,17.60
2018,07,18,06,49,17.60
2018,07,18,06,50,17.60
2018,07,18,06,51,17.60
2018,07,18,06,52,17.60
2018,07,18,06,53,17.60
2018,07,18,06,54,17.60
2018,07,18,06,55,17.60
2018,07,18,06,56,17.70
2018,07,18,06,57,17.70
2018,07,18,06,58,17.80
2018,07,18,06,59,17.80
2018,07,18,07,00,17.90
2018,07,18,07,01,17.90
2018,07,18,07,02,18.00
2018,07,18,07,03,18.10
2018,07,18,07,04,18.10
2018,07,18,07,05,18.20
2018,07,18,07,06,18.20
2018,07,18,07,07,18.30
2018,07,18,07,08,18.30
2018,07,18,07,09,18.30
2018,07,18,07,10,18.40
2018,07,18,07,11,18.40
2018,07,18,07,12,18.40
2018,07,18,07,13,18.50
2018,07,18,07,14,18.50
2018,07,18,07,15,18.50
2018,07,18,07,16,18.60
2018,07,18,07,17,18.60
2018,07,18,07,18,18.60
2018,07,18,07,19,18.60
2018,07,18,07,20,18.60
2018,07,18,07,21,18.70
2018,07,18,07,22,18.70
2018,07,18,07,23,18.80
2018,07,18,07,24,18.80
2018,07,18,07,25,18.80
2018,07,18,07,26,18.80
2018,07,18,07,27,18.80
2018,07,18,07,28,18.80
2018,07,18,07,29,18.80
2018,07,18,07,30,18.80
2018,07,18,07,31,18.80
2018,07,18,07,32,18.90
2018,07,18,07,33,19.00
2018,07,18,07,34,19.10
2018,07,18,07,35,19.20
2018,07,18,07,36,19.20
2018,07,18,07,37,19.30
2018,07,18,07,38,19.30
2018,07,18,07,39,19.40
2018,07,18,07,40,19.50
2018,07,18,07,41,19.60
2018,07,18,07,42,19.60
2018,07,18,07,43,19.70
2018,07,18,07,44,19.60
2018,07,18,07,45,19.60
2018,07,18,07,46,19.60
2018,07,18,07,47,19.60
2018,07,18,07,48,19.60
2018,07,18,07,49,19.60
2018,07,18,07,50,19.60
2018,07,18,07,51,19.60
2018,07,18,07,52,19.60
2018,07,18,07,53,19.60
2018,07,18,07,54,19.70
2018,07,18,07,55,19.70
2018,07,18,07,56,19.70
2018,07,18,07,57,19.80
2018,07,18,07,58,19.80
2018,07,18,07,59,19.80
2018,07,18,08,00,19.90
2018,07,18,08,01,20.00
2018,07,18,08,02,20.00
2018,07,18,08,03,20.10
2018,07,18,08,04,20.10
2018,07,18,08,05,20.10
2018,07,18,08,06,20.10
2018,07,18,08,07,20.20
2018,07,18,08,08,20.20
2018,07,18,08,09,20.20
2018,07,18,08,10,20.30
2018,07,18,08,11,20.30
2018,07,18,08,12,20.40
2018,07,18,08,13,20.40
2018,07,18,08,14,20.40
2018,07,18,08,15,20.40
2018,07,18,08,16,20.50
2018,07,18,08,17,20.50
2018,07,18,08,18,20.50
2018,07,18,08,19,20.50
2018,07,18,08,20,20.50
2018,07,18,08,21,20.50
2018,07,18,08,22,20.40
2018,07,18,08,23,20.40
2018,07,18,08,24,20.30
2018,07,18,08,25,20.20
2018,07,18,08,26,20.10
2018,07,18,08,27,20.20
2018,07,18,08,28,20.20
2018,07,18,08,29,20.20
2018,07,18,08,30,20.30
2018,07,18,08,31,20.30
2018,07,18,08,32,20.30
2018,07,18,08,33,20.30
2018,07,18,08,34,20.30
2018,07,18,08,35,20.40
2018,07,18,08,36,20.50
2018,07,18,08,37,20.50
2018,07,18,08,38,20.60
2018,07,18,08,39,20.70
2018,07,18,08,40,20.70
2018,07,18,08,41,20.70
2018,07,18,08,42,20.80
2018,07,18,08,43,20.90
2018,07,18,08,44,20.90
2018,07,18,08,45,21.00
2018,07,18,08,46,21.00
2018,07,18,08,47,21.00
2018,07,18,08,48,20.90
2018,07,18,08,49,20.80
2018,07,18,08,50,20.70
2018,07,18,08,51,20.50
2018,07,18,08,52,20.40
2018,07,18,08,53,20.30
2018,07,18,08,54,20.20
2018,07,18,08,55,20.10
2018,07,18,08,56,20.10
2018,07,18,08,57,20.00
2018,07,18,08,58,20.00
2018,07,18,08,59,20.00
2018,07,18,09,00,20.00
2018,07,18,09,01,20.00
2018,07,18,09,02,20.10
2018,07,18,09,03,20.10
2018,07,18,09,04,20.10
2018,07,18,09,05,20.10
2018,07,18,09,06,20.10
2018,07,18,09,07,20.10
2018,07,18,09,08,20.10
2018,07,18,09,09,20.10
2018,07,18,09,10,20.10
2018,07,18,09,11,20.10
2018,07,18,09,12,20.10
2018,07,18,09,13,20.10
2018,07,18,09,14,20.10
2018,07,18,09,15,20.10
2018,07,18,09,16,20.10
2018,07,18,09,17,20.10
2018,07,18,09,18,20.10
2018,07,18,09,19,20.10
2018,07,18,09,20,20.10
2018,07,18,09,21,20.10
2018,07,18,09,22,20.20
2018,07,18,09,23,20.20
2018,07,18,09,24,20.30
2018,07,18,09,25,20.30
2018,07,18,09,26,20.30
2018,07,18,09,27,20.40
2018,07,18,09,28,20.50
2018,07,18,09,29,20.60
2018,07,18,09,30,20.70
2018,07,18,09,31,20.80
2018,07,18,09,32,20.90
2018,07,18,09,33,20.90
2018,07,18,09,34,20.90
2018,07,18,09,35,20.90
2018,07,18,09,36,21.00
2018,07,18,09,37,21.00
2018,07,18,09,38,21.10
2018,07,18,09,39,21.10
2018,07,18,09,40,21.10
2018,07,18,09,41,21.10
2018,07,18,09,42,21.10
2018,07,18,09,43,21.10
2018,07,18,09,44,21.00
2018,07,18,09,45,21.00
2018,07,18,09,46,21.10
2018,07,18,09,47,21.00
2018,07,18,09,48,21.00
2018,07,18,09,49,21.00
2018,07,18,09,50,21.00
2018,07,18,09,51,21.00
2018,07,18,09,52,21.00
2018,07,18,09,53,21.10
2018,07,18,09,54,21.20
2018,07,18,09,55,21.20
2018,07,18,09,56,21.30
2018,07,18,09,57,21.40
2018,07,18,09,58,21.50
2018,07,18,09,59,21.50
2018,07,18,10,00,21.40
2018,07,18,10,01,21.30
2018,07,18,10,02,21.10
2018,07,18,10,03,21.10
2018,07,18,10,04,21.00
2018,07,18,10,05,20.90
2018,07,18,10,06,20.80
2018,07,18,10,07,20.60
2018,07,18,10,08,20.50
2018,07,18,10,09,20.40
2018,07,18,10,10,20.30
2018,07,18,10,11,20.20
2018,07,18,10,12,20.10
2018,07,18,10,13,20.10
2018,07,18,10,14,20.10
2018,07,18,10,15,20.10
2018,07,18,10,16,20.00
2018,07,18,10,17,19.90
2018,07,18,10,18,19.90
2018,07,18,10,19,19.90
2018,07,18,10,20,19.80
2018,07,18,10,21,19.80
2018,07,18,10,22,19.80
2018,07,18,10,23,19.80
2018,07,18,10,24,19.80
2018,07,18,10,25,19.70
2018,07,18,10,26,19.70
2018,07,18,10,27,19.80
2018,07,18,10,28,19.80
2018,07,18,10,29,19.80
2018,07,18,10,30,19.80
2018,07,18,10,31,19.80
2018,07,18,10,32,19.90
2018,07,18,10,33,19.90
2018,07,18,10,34,19.90
2018,07,18,10,35,19.90
2018,07,18,10,36,19.90
2018,07,18,10,37,19.90
2018,07,18,10,38,19.90
2018,07,18,10,39,19.90
2018,07,18,10,40,19.90
2018,07,18,10,41,19.90
2018,07,18,10,42,19.80
2018,07,18,10,43,19.80
2018,07,18,10,44,19.80
2018,07,18,10,45,19.90
2018,07,18,10,46,19.90
2018,07,18,10,47,20.00
2018,07,18,10,48,20.00
2018,07,18,10,49,20.10
2018,07,18,10,50,20.10
2018,07,18,10,51,20.20
2018,07,18,10,52,20.20
2018,07,18,10,53,20.30
2018,07,18,10,54,20.40
2018,07,18,10,55,20.40
2018,07,18,10,56,20.40
2018,07,18,10,57,20.30
2018,07,18,10,58,20.30
2018,07,18,10,59,20.30
2018,07,18,11,00,20.30
2018,07,18,11,01,20.40
2018,07,18,11,02,20.40
2018,07,18,11,03,20.50
2018,07,18,11,04,20.60
2018,07,18,11,05,20.70
2018,07,18,11,06,20.70
2018,07,18,11,07,20.70
2018,07,18,11,08,20.70
2018,07,18,11,09,20.70
2018,07,18,11,10,20.70
2018,07,18,11,11,20.70
2018,07,18,11,12,20.70
2018,07,18,11,13,20.70
2018,07,18,11,14,20.70
2018,07,18,11,15,20.80
2018,07,18,11,16,20.80
2018,07,18,11,17,20.90
2018,07,18,11,18,20.90
2018,07,18,11,19,20.80
2018,07,18,11,20,20.80
2018,07,18,11,21,20.80
2018,07,18,11,22,20.80
2018,07,18,11,23,20.80
2018,07,18,11,24,20.80
2018,07,18,11,25,20.80
2018,07,18,11,26,20.80
2018,07,18,11,27,20.80
2018,07,18,11,28,20.90
2018,07,18,11,29,20.90
2018,07,18,11,30,21.00
2018,07,18,11,31,21.10
2018,07,18,11,32,21.00
2018,07,18,11,33,21.00
2018,07,18,11,34,21.10
2018,07,18,11,35,21.10
2018,07,18,11,36,21.20
2018,07,18,11,37,21.20
2018,07,18,11,38,21.20
2018,07,18,11,39,21.20
2018,07,18,11,40,21.20
2018,07,18,11,41,21.30
2018,07,18,11,42,21.40
2018,07,18,11,43,21.40
2018,07,18,11,44,21.40
2018,07,18,11,45,21.30
2018,07,18,11,46,21.20
2018,07,18,11,47,21.20
2018,07,18,11,48,21.10
2018,07,18,11,49,21.10
2018,07,18,11,50,21.10
2018,07,18,11,51,21.10
2018,07,18,11,52,21.20
2018,07,18,11,53,21.30
2018,07,18,11,54,21.30
2018,07,18,11,55,21.30
2018,07,18,11,56,21.40
2018,07,18,11,57,21.50
2018,07,18,11,58,21.50
2018,07,18,11,59,21.40
2018,07,18,12,00,21.40
2018,07,18,12,01,21.40
2018,07,18,12,02,21.40
2018,07,18,12,03,21.40
2018,07,18,12,04,21.40
2018,07,18,12,05,21.40
2018,07,18,12,06,21.40
2018,07,18,12,07,21.30
2018,07,18,12,08,21.30
2018,07,18,12,09,21.30
2018,07,18,12,10,21.30
2018,07,18,12,11,21.30
2018,07,18,12,12,21.30
2018,07,18,12,13,21.30
2018,07,18,12,14,21.40
2018,07,18,12,15,21.40
2018,07,18,12,16,21.40
2018,07,18,12,17,21.40
2018,07,18,12,18,21.50
2018,07,18,12,19,21.50
2018,07,18,12,20,21.50
2018,07,18,12,21,21.50
2018,07,18,12,22,21.40
2018,07,18,12,23,21.30
2018,07,18,12,24,21.30
2018,07,18,12,25,21.20
2018,07,18,12,26,21.20
2018,07,18,12,27,21.20
2018,07,18,12,28,21.20
2018,07,18,12,29,21.10
2018,07,18,12,30,21.10
2018,07,18,12,31,21.10
2018,07,18,12,32,21.10
2018,07,18,12,33,21.10
2018,07,18,12,34,21.20
2018,07,18,12,35,21.30
2018,07,18,12,36,21.40
2018,07,18,12,37,21.40
2018,07,18,12,38,21.40
2018,07,18,12,39,21.40
2018,07,18,12,40,21.50
2018,07,18,12,41,21.50
2018,07,18,12,42,21.50
2018,07,18,12,43,21.60
2018,07,18,12,44,21.60
2018,07,18,12,45,21.70
2018,07,18,12,46,21.80
2018,07,18,12,47,21.90
2018,07,18,12,48,21.90
2018,07,18,12,49,21.90
2018,07,18,12,50,21.90
2018,07,18,12,51,21.80
2018,07,18,12,52,21.80
2018,07,18,12,53,21.80
2018,07,18,12,54,21.80
2018,07,18,12,55,21.80
2018,07,18,12,56,21.90
2018,07,18,12,57,21.90
2018,07,18,12,58,21.90
2018,07,18,12,59,21.90
2018,07,18,13,00,21.80
2018,07,18,13,01,21.80
2018,07,18,13,02,21.70
2018,07,18,13,03,21.80
2018,07,18,13,04,21.80
2018,07,18,13,05,21.90
2018,07,18,13,06,21.90
2018,07,18,13,07,22.00
2018,07,18,13,08,22.10
2018,07,18,13,09,22.20
2018,07,18,13,10,22.10
2018,07,18,13,11,22.00
2018,07,18,13,12,21.80
2018,07,18,13,13,21.70
2018,07,18,13,14,21.70
2018,07,18,13,15,21.70
2018,07,18,13,16,21.60
2018,07,18,13,17,21.50
2018,07,18,13,18,21.40
2018,07,18,13,19,21.30
2018,07,18,13,20,21.20
2018,07,18,13,21,21.10
2018,07,18,13,22,21.10
2018,07,18,13,23,21.10
2018,07,18,13,24,21.10
2018,07,18,13,25,21.10
2018,07,18,13,26,21.10
2018,07,18,13,27,21.10
2018,07,18,13,28,21.10
2018,07,18,13,29,21.10
2018,07,18,13,30,21.10
2018,07,18,13,31,21.00
2018,07,18,13,32,21.00
2018,07,18,13,33,21.00
2018,07,18,13,34,21.00
2018,07,18,13,35,21.10
2018,07,18,13,36,21.10
2018,07,18,13,37,21.10
2018,07,18,13,38,21.10
2018,07,18,13,39,21.10
2018,07,18,13,40,21.20
2018,07,18,13,41,21.30
2018,07,18,13,42,21.40
2018,07,18,13,43,21.40
2018,07,18,13,44,21.40
2018,07,18,13,45,21.50
2018,07,18,13,46,21.50
2018,07,18,13,47,21.50
2018,07,18,13,48,21.40
2018,07,18,13,49,21.40
2018,07,18,13,50,21.30
2018,07,18,13,51,21.30
2018,07,18,13,52,21.30
2018,07,18,13,53,21.30
2018,07,18,13,54,21.40
2018,07,18,13,55,21.40
2018,07,18,13,56,21.50
2018,07,18,13,57,21.60
2018,07,18,13,58,21.60
2018,07,18,13,59,21.70
2018,07,18,14,00,21.80
2018,07,18,14,01,21.80
2018,07,18,14,02,21.80
2018,07,18,14,03,21.70
2018,07,18,14,04,21.70
2018,07,18,14,05,21.60
2018,07,18,14,06,21.60
2018,07,18,14,07,21.60
2018,07,18,14,08,21.60
2018,07,18,14,09,21.60
2018,07,18,14,10,21.60
2018,07,18,14,11,21.60
2018,07,18,14,12,21.60
2018,07,18,14,13,21.60
2018,07,18,14,14,21.50
2018,07,18,14,15,21.50
2018,07,18,14,16,21.50
2018,07,18,14,17,21.50
2018,07,18,14,18,21.50
2018,07,18,14,19,21.40
2018,07,18,14,20,21.40
2018,07,18,14,21,21.40
2018,07,18,14,22,21.40
2018,07,18,14,23,21.50
2018,07,18,14,24,21.60
2018,07,18,14,25,21.60
2018,07,18,14,26,21.70
2018,07,18,14,27,21.80
2018,07,18,14,28,21.80
2018,07,18,14,29,21.80
2018,07,18,14,30,21.70
2018,07,18,14,31,21.70
2018,07,18,14,32,21.70
2018,07,18,14,33,21.60
2018,07,18,14,34,21.50
2018,07,18,14,35,21.40
2018,07,18,14,36,21.30
2018,07,18,14,37,21.30
2018,07,18,14,38,21.30
2018,07,18,14,39,21.20
2018,07,18,14,40,21.20
2018,07,18,14,41,21.20
2018,07,18,14,42,21.20
2018,07,18,14,43,21.30
2018,07,18,14,44,21.30
2018,07,18,14,45,21.30
2018,07,18,14,46,21.40
2018,07,18,14,47,21.50
2018,07,18,14,48,21.60
2018,07,18,14,49,21.70
2018,07,18,14,50,21.70
2018,07,18,14,51,21.70
2018,07,18,14,52,21.70
2018,07,18,14,53,21.60
2018,07,18,14,54,21.70
2018,07,18,14,55,21.70
2018,07,18,14,56,21.70
2018,07,18,14,57,21.70
2018,07,18,14,58,21.60
2018,07,18,14,59,21.60
2018,07,18,15,00,21.60
2018,07,18,15,01,21.50
2018,07,18,15,02,21.50
2018,07,18,15,03,21.50
2018,07,18,15,04,21.50
2018,07,18,15,05,21.60
2018,07,18,15,06,21.50
2018,07,18,15,07,21.40
2018,07,18,15,08,21.40
2018,07,18,15,09,21.40
2018,07,18,15,10,21.40
2018,07,18,15,11,21.40
2018,07,18,15,12,21.50
2018,07,18,15,13,21.60
2018,07,18,15,14,21.60
2018,07,18,15,15,21.70
2018,07,18,15,16,21.70
2018,07,18,15,17,21.60
2018,07,18,15,18,21.60
2018,07,18,15,19,21.70
2018,07,18,15,20,21.70
2018,07,18,15,21,21.70
2018,07,18,15,22,21.80
2018,07,18,15,23,21.80
2018,07,18,15,24,21.90
2018,07,18,15,25,21.90
2018,07,18,15,26,21.80
2018,07,18,15,27,21.80
2018,07,18,15,28,21.80
2018,07,18,15,29,21.80
2018,07,18,15,30,21.80
2018,07,18,15,31,21.90
2018,07,18,15,32,22.00
2018,07,18,15,33,22.00
2018,07,18,15,34,22.00
2018,07,18,15,35,21.90
2018,07,18,15,36,21.90
2018,07,18,15,37,21.80
2018,07,18,15,38,21.70
2018,07,18,15,39,21.70
2018,07,18,15,40,21.60
2018,07,18,15,41,21.60
2018,07,18,15,42,21.60
2018,07,18,15,43,21.60
2018,07,18,15,44,21.60
2018,07,18,15,45,21.60
2018,07,18,15,46,21.60
2018,07,18,15,47,21.60
2018,07,18,15,48,21.60
2018,07,18,15,49,21.60
2018,07,18,15,50,21.70
2018,07,18,15,51,21.80
2018,07,18,15,52,21.90
2018,07,18,15,53,21.90
2018,07,18,15,54,21.90
2018,07,18,15,55,21.90
2018,07,18,15,56,21.90
2018,07,18,15,57,22.00
2018,07,18,15,58,22.00
2018,07,18,15,59,22.00
2018,07,18,16,00,21.90
2018,07,18,16,01,22.00
2018,07,18,16,02,22.00
2018,07,18,16,03,22.10
2018,07,18,16,04,22.10
2018,07,18,16,05,22.10
2018,07,18,16,06,22.10
2018,07,18,16,07,22.10
2018,07,18,16,08,22.10
2018,07,18,16,09,22.20
2018,07,18,16,10,22.20
2018,07,18,16,11,22.20
2018,07,18,16,12,22.20
2018,07,18,16,13,22.20
2018,07,18,16,14,22.20
2018,07,18,16,15,22.20
2018,07,18,16,16,22.20
2018,07,18,16,17,22.20
2018,07,18,16,18,22.10
2018,07,18,16,19,22.10
2018,07,18,16,20,22.10
2018,07,18,16,21,22.00
2018,07,18,16,22,22.00
2018,07,18,16,23,21.90
2018,07,18,16,24,21.90
2018,07,18,16,25,21.90
2018,07,18,16,26,21.90
2018,07,18,16,27,22.00
2018,07,18,16,28,22.00
2018,07,18,16,29,21.90
2018,07,18,16,30,21.90
2018,07,18,16,31,21.90
2018,07,18,16,32,21.90
2018,07,18,16,33,21.90
2018,07,18,16,34,21.90
2018,07,18,16,35,21.90
2018,07,18,16,36,21.80
2018,07,18,16,37,21.80
2018,07,18,16,38,21.80
2018,07,18,16,39,21.80
2018,07,18,16,40,21.80
2018,07,18,16,41,21.80
2018,07,18,16,42,21.80
2018,07,18,16,43,21.70
2018,07,18,16,44,21.80
2018,07,18,16,45,21.80
2018,07,18,16,46,21.80
2018,07,18,16,47,21.80
2018,07,18,16,48,21.90
2018,07,18,16,49,21.90
2018,07,18,16,50,21.90
2018,07,18,16,51,21.90
2018,07,18,16,52,21.90
2018,07,18,16,53,21.90
2018,07,18,16,54,21.90
2018,07,18,16,55,21.90
2018,07,18,16,56,21.90
2018,07,18,16,57,21.80
2018,07,18,16,58,21.80
2018,07,18,16,59,21.80
2018,07,18,17,00,21.80
2018,07,18,17,01,21.80
2018,07,18,17,02,21.80
2018,07,18,17,03,21.80
2018,07,18,17,04,21.80
2018,07,18,17,05,21.80
2018,07,18,17,06,21.80
2018,07,18,17,07,21.80
2018,07,18,17,08,21.80
2018,07,18,17,09,21.80
2018,07,18,17,10,21.80
2018,07,18,17,11,21.80
2018,07,18,17,12,21.80
2018,07,18,17,13,21.80
2018,07,18,17,14,21.80
2018,07,18,17,15,21.80
2018,07,18,17,16,21.80
2018,07,18,17,17,21.80
2018,07,18,17,18,21.80
2018,07,18,17,19,21.70